Location: *
(50.6089°N, 2.2719°E)
Time: 15:47:51
(UTC+00:00)

Cosmos 1934 Rocket - Pass Details

Date: 18 October 2019
Orbit: 939 x 998 km, 83.0° (Epoch: 16 November)

Event Time Altitude Azimuth Distance (km) Brightness Sun altitude
Rises 17:37:57 0° 351° (N) 3,701 7.1 -7.8°
Reaches altitude 10° 17:40:29 10° 353° (N) 2,756 6.4 -8.2°
Maximum altitude 17:46:50 71° 78° (ENE) 1,049 4.0 -9.2°
Drops below altitude 10° 17:53:10 10° 163° (SSE) 2,761 6.2 -10.2°
Sets 17:55:42 0° 165° (SSE) 3,707 6.9 -10.6°
